Regional Weather Roundup
Issued by NWS

Home | Current Version | Previous Version | Text Only | Print | Product List | Glossary Off
Versions: 1 2 3 4 5 6 7 8 9 10 11 12 13 14 15 16 17 18 19 20 21 22 23 24 25 26 27 28 29 30 31 32 33 34 35 36 37 38 39 40 41 42 43 44 45 46 47 48 49 50

000
ASUS45 KCYS 010310
RWRWY

WYOMING REGIONAL WEATHER ROUNDUP
NATIONAL WEATHER SERVICE CHEYENNE WY
900 PM MDT FRI SEP 30 2016

NOTE:  "FAIR" INDICATES FEW OR NO CLOUDS BELOW 12,000 FEET
WITH NO SIGNIFICANT WEATHER AND/OR OBSTRUCTIONS TO VISIBILITY.

WYZ001-010400-
YELLOWSTONE NATIONAL PARK

CITY           SKY/WX    TMP DP  RH WIND       PRES   REMARKS
LK YELLOWSTONE   N/A     40  40 100 VRB5      30.31S
W YELLOWSTONE  NOT AVBL

$$
WYZ002>013-054>058-071-098>099-010400-
NORTHERN WYOMING

CITY           SKY/WX    TMP DP  RH WIND       PRES   REMARKS
JACKSON        FAIR      48  46  93 CALM      30.23S
CODY           MOCLDY    60  48  64 S5        30.12S
GREYBULL       FAIR      64  50  60 E7        30.04R
WORLAND        FAIR      59  46  62 SE8       30.05R
SHERIDAN       FAIR      58  49  72 SE3       30.05R
BUFFALO        FAIR      65  44  46 W13       30.12R
GILLETTE       FAIR      53  48  83 S3        30.06S
HULETT         MOCLDY    63  50  63 S5        30.08R
NEWCASTLE      FAIR      66  41  39 SE9G16    30.07R

$$
WYZ014>020-022>026-101>103-010400-
CENTRAL WYOMING

CITY           SKY/WX    TMP DP  RH WIND       PRES   REMARKS
BIG PINEY      FAIR      51  40  65 N9        30.26R
PINEDALE       FAIR      46  37  71 N8        30.27S
DUBOIS         CLOUDY    54  39  58 NW5       30.24S
LANDER         MOCLDY    63  43  48 SW9       30.13R
RIVERTON       FAIR      62  40  44 NE6       30.13S
CASPER         FAIR      52  42  69 NW9       30.13R
DOUGLAS        FAIR      57  45  64 SE9       30.11R

$$
WYZ021-027>030-104>119-010400-
SOUTHERN WYOMING

CITY           SKY/WX    TMP DP  RH WIND       PRES   REMARKS
EVANSTON       FAIR      55  41  59 S7        30.26R
FORT BRIDGER   FAIR      54  41  62 S9        30.29R
ROCK SPRINGS   MOCLDY    56  43  61 S7        30.24S
DIXON          FAIR      55  43  64 NE5       30.28R
RAWLINS        FAIR      55  38  52 SW9       30.24R
SARATOGA       FAIR      50  39  66 E9        30.28R
LARAMIE        FAIR      56  41  57 S10       30.26R
CHEYENNE       FAIR      54  46  74 S7        30.21R
TORRINGTON     FAIR      57  48  72 SE7       30.09R
PINE BLUFFS    FAIR      57  43  58 S7        30.18R

$$



USA.gov is the U.S. government's official web portal to all federal, state and local government web resources and services.